Header for Extended Forecast Station List Page

Search by: ID | Name | Date | Parm | Value | Avg | % Avg
Sort by: ID | Name | Date | Parm | Value | Avg | % Avg

Enter search or view all records.

Click on id for station plot
#IDNameDateParmValueAvg% Avg
0LYDM8KOOTENAI-LIBBY DAM03-30-2020INFLOW (KAF)4951551090
1LEOI1KOOTENAI-AT LEONIA03-30-2020DISCHARGE (KAF)3722507373
2BFEI1KOOTENAI-AT BONNERS FERRY03-30-2020STAGE (FT)MMM
3FCFM8NF FLATHEAD-NEAR COLUMBIA FALLS03-30-2020DISCHARGE (KAF)1520154498
4WGCM8MF FLATHEAD-NEAR WEST GLACIER03-30-2020DISCHARGE (KAF)16491508109
5HHWM8SF FLATHEAD-HUNGRY HORSE DAM03-30-2020INFLOW (KAF)19451880103
6CFMM8FLATHEAD-AT COLUMBIA FALLS03-30-2020DISCHARGE (KAF)46844061115
7DLGM8CLARK FORK-AT DEER LODGE03-30-2020DISCHARGE (KAF)728091
8DRMM8CLARK FORK-NR DRUMMOND03-30-2020DISCHARGE (KAF)234MM
9RCCM8ROCK CREEK-NEAR CLINTON03-30-2020DISCHARGE (KAF)22724891
10BONM8BLACKFOOT-NEAR BONNER03-30-2020DISCHARGE (KAF)796777102
11ABOM8CLARK FORK-ABOVE MISSOULA03-30-2020DISCHARGE (KAF)1308138195
12BITM8BITTERROOT-NEAR MISSOULA03-30-2020DISCHARGE (KAF)1075119190
13BELM8CLARK FORK-BELOW MISSOULA03-30-2020DISCHARGE (KAF)2383261091
14STRM8ST. REGIS-NEAR ST. REGIS03-30-2020DISCHARGE (KAF)20424783
15SRGM8CLARK FORK-AT ST REGIS03-30-2020DISCHARGE (KAF)2899349483
16KERM8FLATHEAD-KERR DAM03-30-2020INFLOW (KAF)52615079104
17NOXM8CLARK FORK-NOXON RAPIDS DAM03-30-2020INFLOW (KAF)7527867587
18CABI1CLARK FORK-CABINET GORGE DAM03-30-2020INFLOW (KAF)8275916690
19PRTI1PRIEST-NEAR PRIEST RIVER03-30-2020DISCHARGE (KAF)70876592
20ALFW1PEND OREILLE-ALBENI FALLS DAM03-30-2020INFLOW (KAF)94731074388
21HOPI1PEND OREILLE-PEND OREILLE LAKE NR HOPE03-30-2020LAKE ELEVATION (FT)MMM
22COEI1COEUR D ALENE-COEUR D ALENE LAKE03-30-2020INFLOW (KAF)2326252092
23SPOW1SPOKANE-AT SPOKANE03-30-2020DISCHARGE (KAF)2230MM
24LLKW1SPOKANE-AT LONGLAKE03-30-2020INFLOW (KAF)2438299981
25SATI1ST MARIES-NEAR SANTA03-30-2020DISCHARGE (KAF)12112994
26SJMI1ST JOE-AT ST MARIES03-30-2020STAGE (FT)MMM
27CIBW1COLUMBIA-AT INTL BOUNDARY03-30-2020DISCHARGE (KAF)26944MM
28LAUW1KETTLE-AT LAURIER03-30-2020DISCHARGE (KAF)21181702124
29GCDW1COLUMBIA-GRAND COULEE DAM03-30-2020INFLOW (KAF)315663993379
30CHJW1COLUMBIA-CHIEF JOSEPH DAM03-30-2020INFLOW (KAF)278233082790
31TONW1OKANOGAN-NEAR TONASKET03-30-2020DISCHARGE (KAF)1252140789
32PATW1METHOW-NEAR PATEROS03-30-2020DISCHARGE (KAF)76681894
33WELW1COLUMBIA-WELLS DAM03-30-2020INFLOW (KAF)298383346089
34CHDW1CHELAN-LAKE CHELAN DAM03-30-2020INFLOW (KAF)88695193
35RRHW1COLUMBIA-ROCKY REACH DAM03-30-2020INFLOW (KAF)304943397290
36ARDW1ENTIAT-NEAR ARDENVOIR03-30-2020DISCHARGE (KAF)16719088
37PESW1WENATCHEE-AT PESHASTIN03-30-2020DISCHARGE (KAF)1214137788
38WANW1COLUMBIA-WANAPUM DAM03-30-2020INFLOW (KAF)318064034879
39PRWW1COLUMBIA-PRIEST RAPIDS DAM03-30-2020INFLOW (KAF)318024112577
40KEDW1YAKIMA-KEECHELUS LAKE03-30-2020INFLOW (KAF)112108104
41KADW1KACHESS-KACHESS DAM03-30-2020INFLOW (KAF)9810097
42EASW1YAKIMA-AT EASTON03-30-2020DISCHARGE (KAF)10394110
43CLUW1CLE ELUM-CLE ELUM LAKE03-30-2020INFLOW (KAF)380367104
44TNAW1TEANAWAY-BELOW FORKS03-30-2020DISCHARGE (KAF)116114102
45UMTW1YAKIMA-AT UMTANUM03-30-2020DISCHARGE (KAF)758755100
46BUDW1BUMPING-BUMPING LAKE DAM03-30-2020INFLOW (KAF)122110111
47CLFW1NACHES-NEAR CLIFFDEL03-30-2020DISCHARGE (KAF)398349114
48RILW1TIETON-RIMROCK LAKE NEAR RIMROCK03-30-2020INFLOW (KAF)197185106
49NACW1NACHES-NEAR NACHES03-30-2020DISCHARGE (KAF)575471122
50PARW1YAKIMA-NEAR PARKER03-30-2020DISCHARGE (KAF)524471111
51KIOW1YAKIMA-AT KIONA03-30-2020DISCHARGE (KAF)76784691
52IPDI1HENRYS FORK-ISLAND PARK DAM03-30-2020INFLOW (KAF)19620098
53CHEI1FALL RIVER-NEAR CHESTER03-30-2020DISCHARGE (KAF)317315101
54ANTI1HENRYS FORK-AT ST. ANTHONY03-30-2020DISCHARGE (KAF)58961396
55TEAI1TETON-NEAR ST. ANTHONY03-30-2020DISCHARGE (KAF)362329110
56REXI1HENRYS FORK-AT REXBURG03-30-2020DISCHARGE (KAF)69071397
57JLKW4SNAKE-JACKSON LAKE AT DAM03-30-2020INFLOW (KAF)67273691
58JKSW4SNAKE-NEAR JACKSON03-30-2020DISCHARGE (KAF)17261480117
59ALPW4SNAKE-NEAR ALPINE03-30-2020DISCHARGE (KAF)21451925111
60PLDI1SF SNAKE-PALISADES DAM03-30-2020INFLOW (KAF)30562796109
61HEII1SNAKE-NEAR HEISE03-30-2020DISCHARGE (KAF)36572810130
62RIDI1WILLOW CREEK-RIRIE DAM03-30-2020INFLOW (KAF)5742135
63SIFI1SNAKE-AB EAGLE ROCK NR IDAHO FALLS03-30-2020DISCHARGE (KAF)31242379131
64SHYI1SNAKE-NEAR SHELLEY03-30-2020DISCHARGE (KAF)29172234131
65SNAI1SNAKE-AT BLACKFOOT03-30-2020DISCHARGE (KAF)24121804134
66BFTI1SNAKE-NEAR BLACKFOOT03-30-2020DISCHARGE (KAF)23641721137
67PIHI1PORTNEUF-AT POCATELLO03-30-2020DISCHARGE (KAF)667984
68AFRI1SNAKE-AMERICAN FALLS RESERVOIR03-30-2020INFLOW (KAF)28542348122
69MILI1SNAKE-AT MILNER03-30-2020DISCHARGE (KAF)988411240
70HOTI1BRUNEAU-NEAR HOT SPRINGS03-30-2020DISCHARGE (KAF)14417582
71SWAI1SNAKE-BELOW SWAN FALLS03-30-2020DISCHARGE (KAF)26152382110
72HWRI1BIG LOST-AT HOWELL RANCH NEAR CHILLY03-30-2020DISCHARGE (KAF)8915358
73MACI1BIG LOST-MACKAY RESERVOIR NEAR MACKAY03-30-2020INFLOW (KAF)8015352
74HALI1BIG WOOD-AT HAILEY03-30-2020DISCHARGE (KAF)12922258
75MAGI1BIG WOOD-MAGIC DAM03-30-2020INFLOW (KAF)9323739
76LWRI1LITTLE WOOD-LITTLE WOOD DAM03-30-2020INFLOW (KAF)377449
77OWYO3OWYHEE-OWYHEE DAM03-30-2020INFLOW (KAF)16629456
78ARAI1SF BOISE-ANDERSON RANCH DAM03-30-2020INFLOW (KAF)31249663
79LUCI1BOISE-LUCKY PEAK DAM03-30-2020INFLOW (KAF)1128MM
80BIGI1BOISE-AT GLENWOOD BRIDGE03-30-2020DISCHARGE (KAF)38543489
81PARI1BOISE-NEAR PARMA03-30-2020DISCHARGE (KAF)35041385
82WRMO3MALHEUR-WARM SPRINGS DAM03-30-2020INFLOW (KAF)4739121
83BERO3MALHEUR-AGENCY VALLEY DAM03-30-2020INFLOW (KAF)364091
84BULO3BULLY CREEK-BULLY CREEK DAM03-30-2020INFLOW (KAF)3379
85CSDI1NF PAYETTE-CASCADE DAM03-30-2020INFLOW (KAF)36147676
86DEDI1DEADWOOD-NEAR LOWMAN03-30-2020INFLOW (KAF)9212872
87EMMI1PAYETTE-NEAR EMMETT03-30-2020DISCHARGE (KAF)673118157
88WSRI1WEISER-NEAR WEISER03-30-2020DISCHARGE (KAF)24835869
89WEII1SNAKE-AT WEISER03-30-2020DISCHARGE (KAF)4199479788
90BRNI1SNAKE-BROWNLEE DAM03-30-2020INFLOW (KAF)4585519488
91WHBI1SALMON-AT WHITEBIRD03-30-2020DISCHARGE (KAF)3963553972
92TRYO3GRANDE RONDE-TROY03-30-2020DISCHARGE (KAF)13381204111
93ANAW1SNAKE-NEAR ANATONE03-30-2020DISCHARGE (KAF)95871292774
94ORFI1CLEARWATER-AT OROFINO03-30-2020DISCHARGE (KAF)44894444101
95DWRI1NF CLEARWATER-DWORSHAK DAM03-30-2020INFLOW (KAF)2303260588
96SPDI1CLEARWATER-AT SPALDING03-30-2020DISCHARGE (KAF)5972672389
97LGDW1SNAKE-LOWER GRANITE DAM03-30-2020INFLOW (KAF)155591970479
98LGSW1SNAKE-LITTLE GOOSE DAM03-30-2020INFLOW (KAF)155591970379
99LMNW1SNAKE-LOWER MONUMENTAL DAM03-30-2020INFLOW (KAF)156261981679
100IHDW1SNAKE-ICE HARBOR DAM03-30-2020INFLOW (KAF)156271968379
101TCHW1WALLA WALLA-NEAR TOUCHET03-30-2020DISCHARGE (KAF)139113122
102MCDW1COLUMBIA-MCNARY DAM03-30-2020INFLOW (KAF)483026263877
103GIBO3UMATILLA-NEAR GIBBON03-30-2020DISCHARGE (KAF)7866118
104PDTO3UMATILLA-AT PENDLETON03-30-2020DISCHARGE (KAF)159131122
105MYKO3MCKAY CREEK-NEAR PILOT ROCK03-30-2020DISCHARGE (KAF)172183
106UMAO3UMATILLA-NEAR UMATILLA03-30-2020DISCHARGE (KAF)12983156
107MONO3NF JOHN DAY-AT MONUMENT03-30-2020DISCHARGE (KAF)542536101
108SERO3JOHN DAY-AT SERVICE CK03-30-2020DISCHARGE (KAF)71675595
109JDAO3COLUMBIA-JOHN DAY DAM03-30-2020INFLOW (KAF)502256470578
110MODO3DESCHUTES-AT MOODY NR BIGGS03-30-2020DISCHARGE (KAF)1232136191
111TDAO3COLUMBIA-THE DALLES DAM03-30-2020INFLOW (KAF)504455827387
112PITW1KLICKITAT-NEAR PITT03-30-2020DISCHARGE (KAF)36546778
113HODO3HOOD-NEAR TUCKER BRIDGE03-30-2020DISCHARGE (KAF)18421685
114UNDW1WHITE SALMON-NEAR UNDERWOOD03-30-2020DISCHARGE (KAF)25131480
115BONO3COLUMBIA-BONNEVILLE DAM03-30-2020INFLOW (KAF)512466020485